Weather History for KTRM - June, 2013

Change the Weather History Date:

Saturday, June 8, 2013

  Actual Average Record
Temperature  
Mean Temperature 85 °F 84 °F  
Max Temperature 103 °F 101 °F 116 °F (1955)
Min Temperature 67 °F 66 °F 58 °F (1999)
Degree Days  
Heating Degree Days 0 0  
Month to date heating degree days 0 0  
Since 1 June heating degree days 0 0  
Since 1 July heating degree days 1124 1181  
Cooling Degree Days 20 18  
Month to date cooling degree days 184 141  
Year to date cooling degree days 1091 814  
Since 1 June cooling degree days 184 141  
Growing Degree Days 35 (Base 50)    
Moisture  
Dew Point 56 °F    
Average Humidity 40    
Maximum Humidity 63    
Minimum Humidity 16    
Precipitation  
Precipitation 0.00 in 0.00 in 0.00 in (2015)
Month to date precipitation 0.00 0.01  
Year to date precipitation 0.44 1.81  
Since 1 July precipitation 2.62  
Snow  
Snow 0.00 in - - ()
Month to date snowfall 0.0  
Year to date snowfall 0.0  
Since 1 June snowfall  
Since 1 July snowfall 0.0  
Snow Depth 0.00 in    
Sea Level Pressure  
Sea Level Pressure 29.67 in    
Wind  
Wind Speed 7 mph (SE)    
Max Wind Speed 13 mph    
Max Gust Speed 20 mph    
Visibility 10 miles    
Events      
T = Trace of Precipitation, MM = Missing Value Source: NWS Daily Summary

Daily Weather History Graph

Daily Weather History Graph

Search for Another Location

Airport or City:

Trip Planner

Search our weather history database for the weather conditions in past years. The results will help you decide how hot, cold, wet, or windy it might be!

Date:

Astronomy

Jun. 08, 2013 Rise Set
Actual Time 5:33 AM PDT 7:53 PM PDT
Civil Twilight 5:05 AM PDT 8:22 PM PDT
Nautical Twilight 4:29 AM PDT 8:58 PM PDT
Astronomical Twilight 3:51 AM PDT 9:36 PM PDT
Moon 5:42 AM PDT (6/8) 8:02 PM PDT (6/8)
Length of Visible Light 15h 17m
Length of Day
14h 19m
New Moon, 0% of the Moon is Illuminated
Jun 8
New Moon
Jun 16
First Quarter
Jun 23
Full
Jun 29
Last Quarter
Jul 8
New

Hourly Weather History & Observations

Time (PDT) Temp. Heat Index Dew Point Humidity Pressure Visibility Wind Dir Wind Speed Gust Speed Precip Events Conditions
12:52 AM 84.9 °F 83.6 °F 55.0 °F 36% 29.59 in 10.0 mi Calm Calm - N/A   Clear
1:52 AM 81.0 °F 80.8 °F 55.9 °F 42% 29.58 in 10.0 mi North 4.6 mph - N/A   Clear
2:52 AM 79.0 °F - 55.0 °F 44% 29.60 in 10.0 mi Calm Calm - N/A   Clear
3:52 AM 71.1 °F - 55.0 °F 57% 29.61 in 10.0 mi West 3.5 mph - N/A   Clear
4:52 AM 73.9 °F - 57.0 °F 55% 29.61 in 10.0 mi North 5.8 mph - N/A   Clear
5:52 AM 68.0 °F - 55.9 °F 65% 29.64 in 10.0 mi SE 4.6 mph - N/A   Clear
6:52 AM 75.9 °F - 57.0 °F 52% 29.67 in 10.0 mi SE 5.8 mph - N/A   Clear
7:52 AM 84.0 °F 83.8 °F 59.0 °F 43% 29.70 in 10.0 mi SSE 9.2 mph - N/A   Clear
8:52 AM 86.0 °F 84.9 °F 57.0 °F 37% 29.72 in 10.0 mi SE 12.7 mph - N/A   Clear
9:52 AM 88.0 °F 87.9 °F 61.0 °F 40% 29.72 in 10.0 mi SSE 9.2 mph - N/A   Clear
10:52 AM 91.0 °F 90.2 °F 59.0 °F 34% 29.73 in 10.0 mi SSE 8.1 mph - N/A   Clear
11:52 AM 93.9 °F 93.2 °F 59.0 °F 31% 29.72 in 10.0 mi SSE 8.1 mph - N/A   Clear
12:52 PM 96.1 °F 94.8 °F 57.0 °F 27% 29.71 in 10.0 mi SE 5.8 mph - N/A   Clear
1:52 PM 99.0 °F 98.1 °F 57.0 °F 25% 29.70 in 10.0 mi SE 9.2 mph - N/A   Clear
2:52 PM 100.0 °F 97.9 °F 54.0 °F 21% 29.68 in 10.0 mi SSE 8.1 mph - N/A   Clear
3:52 PM 102.9 °F 100.9 °F 53.1 °F 19% 29.68 in 10.0 mi SSE 9.2 mph 16.1 mph N/A   Clear
4:52 PM 102.9 °F - 48.9 °F 16% 29.64 in 10.0 mi SE 10.4 mph - N/A   Clear
5:52 PM 102.9 °F - 44.1 °F 14% 29.63 in 10.0 mi SSE 4.6 mph - N/A   Clear
6:52 PM 100.9 °F - 48.9 °F 17% 29.64 in 10.0 mi SE 4.6 mph - N/A   Clear
7:52 PM 93.0 °F 91.7 °F 57.0 °F 30% 29.65 in 10.0 mi South 3.5 mph - N/A   Clear
8:52 PM 86.0 °F 85.0 °F 57.9 °F 38% 29.67 in 10.0 mi East 4.6 mph - N/A   Clear
9:52 PM 84.9 °F 83.9 °F 57.0 °F 38% 29.72 in 10.0 mi SW 4.6 mph - N/A   Clear
10:52 PM 81.0 °F 81.3 °F 59.0 °F 47% 29.71 in 10.0 mi Calm Calm - N/A   Clear
11:52 PM 78.1 °F - 60.1 °F 54% 29.72 in 10.0 mi Calm Calm - N/A   Clear